[[{"header":{"parameterUnit":"m.s-1","parameterCategory":1,"la1":30.2991,"la2":30.254,"lo1":-89.0895,"lo2":-89.0444,"dy":0.0017,"dx":0.0017,"nx":28,"ny":28,"refTime":"2025-05-19T21:00:00:Z","depth":0,"parameterNumber":2,"parameterNumberName":"U-component_of_WINDS"},"data":[0,0,0,0,0,0,0,0,0,0,0,0,0,0,0,0,0,0,0,0,0,0,0,0,0,0,0,0,0,0,0,0,0,0,0,0,0,0,0,0,0,0,0,0,0,0,0,0,0,0,0,0,0,0,0,0,0,0,-2.6982,-2.6983,0,-2.7047,-2.7048,-2.7049,-2.7045,-2.7044,-2.7043,-2.7042,-2.711,-2.7112,-2.7115,0,0,0,0,0,0,0,0,0,0,0,0,0,-2.6855,-2.6857,-2.6982,-2.6983,-2.6984,-2.7047,-2.7048,-2.7049,-2.7045,-2.7044,-2.7043,-2.7042,-2.7109,-2.7112,-2.7115,0,0,0,0,0,0,0,0,0,0,0,0,0,-2.6914,-2.6858,-2.6982,-2.699,-2.6991,-2.7047,-2.7048,-2.7049,-2.7046,-2.7044,-2.7043,-2.7041,-2.7108,-2.7112,-2.7116,-2.7169,0,0,-2.7128,-2.713,0,0,0,0,0,0,0,0,-2.6911,-2.6919,-2.6988,-2.6989,-2.6991,-2.7037,-2.7028,-2.7089,-2.7046,-2.7025,-2.7042,-2.7041,-2.7087,-2.7092,-2.7108,-2.7172,-2.7175,-2.7128,-2.7131,-2.7133,-2.7134,0,0,0,0,0,0,0,-2.6907,-2.6916,-2.7008,-2.6989,-2.6991,-2.699,-2.6997,-2.704,-2.7063,-2.7027,-2.7027,-2.7034,-2.7087,-2.7104,-2.7109,-2.7176,-2.7128,-2.7132,-2.7134,-2.7136,-2.7287,-2.7289,0,0,0,0,0,0,-2.6901,-2.6913,-2.7006,-2.701,-2.6947,-2.6993,-2.7001,-2.7023,-2.7063,-2.7067,-2.7035,-2.7034,-2.7098,-2.7105,-2.7112,-2.7176,-2.7133,-2.7136,-2.7139,-2.7285,-2.7287,-2.7289,0,0,0,0,0,0,-2.6898,-2.6909,-2.7003,-2.6961,-2.6973,-2.6997,-2.7022,-2.7025,-2.7042,-2.7069,-2.7073,-2.7048,-2.7097,-2.7106,-2.7155,-2.7178,-2.7138,-2.7142,-2.7284,-2.7286,-2.7288,-2.7305,0,0,0,0,0,0,-2.6895,-2.6908,-2.6929,-2.6962,-2.6976,-2.7045,-2.7024,-2.7028,-2.7049,-2.7047,-2.7082,-2.7086,-2.7096,-2.7149,-2.7159,-2.7183,-2.7145,-2.7281,-2.7285,-2.7287,-2.7303,-2.7308,-2.7313,0,0,0,0,0,-2.689,-2.6931,-2.693,-2.6941,-2.7001,-2.7046,-2.7054,-2.7065,-2.7051,-2.7071,-2.7089,-2.7085,-2.7174,-2.7154,-2.7165,-2.7191,-2.728,-2.7284,-2.7287,-2.7301,-2.7307,-2.7313,0,0,0,0,0,0,-2.69,-2.6936,-2.6934,-2.6987,-2.7014,-2.7046,-2.7072,-2.7071,-2.7103,-2.71,-2.7112,-2.712,-2.7168,-2.7185,-2.7161,-2.7244,-2.7225,-2.7231,-2.7232,-2.7238,-2.7243,-2.7238,-2.7148,0,0,0,0,0,-2.6909,-2.6942,-2.6971,-2.7015,-2.7029,-2.7048,-2.7068,-2.7074,-2.7102,-2.7113,-2.7134,-2.7162,-2.7196,-2.7218,-2.7251,-2.7306,-2.7313,-2.7329,-2.7334,-2.7338,-2.7343,-2.7372,-2.738,-2.7301,-2.7301,-2.7301,0,0,-2.6926,-2.695,-2.697,-2.7018,-2.7039,-2.7073,-2.7057,-2.7095,-2.712,-2.7119,-2.7166,-2.7182,-2.7214,-2.7265,-2.7289,-2.7281,-2.7366,-2.7342,-2.7345,-2.7348,-2.7377,-2.7384,-2.7391,-2.7303,-2.7303,-2.7303,0,0,-2.6976,-2.6997,-2.7036,-2.7058,-2.709,-2.7102,-2.7112,-2.7144,-2.7155,-2.7202,-2.7201,-2.7232,-2.7291,-2.7313,-2.7332,-2.7391,-2.7389,-2.7401,-2.7427,-2.7455,-2.7462,-2.7467,-2.7487,-2.7495,-2.7406,-2.7406,-2.7406,0,-2.6994,-2.7046,-2.7056,-2.7093,-2.7114,-2.7114,-2.7154,-2.7174,-2.7216,-2.723,-2.722,-2.7293,-2.7315,-2.7371,-2.7385,-2.7401,-2.7412,-2.7397,-2.746,-2.7466,-2.7471,-2.749,-2.7498,-2.7408,-2.7407,-2.7407,-2.7407,0,-2.7066,-2.7102,-2.7129,-2.7169,-2.7193,-2.7231,-2.7247,-2.7271,-2.7274,-2.7288,-2.7336,-2.7362,-2.74,-2.7414,-2.7418,-2.7471,-2.7465,-2.7457,-2.7438,-2.7479,-2.7498,-2.7505,-2.7409,-2.7409,-2.7408,-2.7408,0,0,-2.7124,-2.7168,-2.7178,-2.7196,-2.7232,-2.726,-2.7298,-2.7335,-2.7354,-2.7383,-2.7415,-2.7465,-2.7458,-2.7479,-2.7486,-2.7512,-2.7556,-2.7501,-2.7502,-2.751,-2.7615,-2.762,-2.7629,-2.7555,-2.7556,-2.7557,-2.7612,0,-2.7176,-2.7244,-2.7254,-2.7313,-2.7346,-2.7347,-2.738,-2.7406,-2.742,-2.745,-2.7466,-2.7501,-2.7489,-2.7502,-2.7527,-2.7545,-2.7577,-2.7541,-2.7585,-2.7586,-2.7576,-2.7638,-2.7644,-2.7695,-2.762,-2.7621,-2.7622,0,-2.7247,-2.7277,-2.7339,-2.737,-2.7384,-2.7414,-2.7449,-2.7478,-2.7507,-2.7515,-2.7539,-2.7543,-2.7583,-2.7563,-2.7618,-2.7593,-2.7612,-2.7623,-2.7625,-2.7629,-2.7606,-2.7643,-2.7711,-2.7718,-2.7633,-2.7632,-2.7632,0,-2.7282,-2.7338,-2.7383,-2.7398,-2.7435,-2.7456,-2.7473,-2.75,-2.7522,-2.7552,-2.7566,-2.7601,-2.762,-2.7647,-2.766,-2.7644,-2.7714,-2.7695,-2.7721,-2.7721,-2.7735,-2.7734,-2.7806,-2.7749,-2.7748,-2.7748,-2.7748,0,-2.734,-2.7378,-2.7399,-2.7426,-2.7469,-2.7481,-2.7522,-2.7539,-2.7563,-2.7594,-2.7597,-2.7625,-2.7641,-2.7672,-2.7683,-2.7727,-2.7735,-2.7743,-2.7745,-2.7743,-2.7741,-2.7754,-2.7751,-2.775,-2.775,-2.775,-2.7749,0,-2.7386,-2.7401,-2.745,-2.7481,-2.749,-2.752,-2.7546,-2.7573,-2.7587,-2.7626,-2.7635,-2.7657,-2.7694,-2.771,-2.7755,-2.7762,-2.7812,-2.7812,-2.7802,-2.7803,-2.7828,-2.7825,-2.7911,-2.7922,-2.7857,-2.7858,-2.7858,0,-2.7421,-2.745,-2.7484,-2.7505,-2.7522,-2.7555,-2.7576,-2.759,-2.7612,-2.7647,-2.767,-2.7706,-2.7736,-2.7795,-2.7815,-2.785,-2.785,-2.7878,-2.7855,-2.7851,-2.785,-2.7848,-2.785,-2.7881,-2.7882,-2.7883,-2.7883,0,-2.7482,-2.7488,-2.7519,-2.7553,-2.7579,-2.7606,-2.7633,-2.7649,-2.7667,-2.7692,-2.7729,-2.7752,-2.7798,-2.7835,-2.787,-2.7888,-2.7888,-2.789,-2.7898,-2.7895,-2.7887,-2.7891,-2.7812,-2.7888,-2.7887,-2.7887,-2.7887,-2.7886,-2.7524,-2.7549,-2.7577,-2.7612,-2.7633,-2.7658,-2.7684,-2.7701,-2.7732,-2.777,-2.7776,-2.7816,-2.7844,-2.7893,-2.7911,-2.7943,-2.7936,-2.7947,-2.795,-2.7953,-2.7954,-2.7883,-2.7949,-2.7949,-2.7949,-2.7949,-2.7949,0,-2.7585,-2.7602,-2.7634,-2.7671,-2.7698,-2.7696,-2.7725,-2.7748,-2.7782,-2.7809,-2.7838,-2.7881,-2.7916,-2.7939,-2.7974,-2.7995,-2.7996,-2.8004,-2.8002,-2.8006,-2.7958,-2.7948,-2.8002,-2.8002,-2.8002,-2.8002,-2.8002,-2.8002,-2.7619,-2.7662,-2.7672,-2.7726,-2.7744,-2.7782,-2.7799,-2.7822,-2.7843,-2.789,-2.7919,-2.7934,-2.7959,-2.7996,-2.8028,-2.8034,-2.8047,-2.8055,-2.806,-2.8015,-2.8009,-2.8004,-2.7994,-2.8057,-2.8057,-2.8105,-2.8105,-2.8106]},{"header":{"parameterUnit":"m.s-1","parameterCategory":1,"la1":30.2991,"la2":30.254,"lo1":-89.0895,"lo2":-89.0444,"dy":0.0017,"dx":0.0017,"nx":28,"ny":28,"refTime":"2025-05-19T21:00:00:Z","depth":0,"parameterNumber":3,"parameterNumberName":"V-component_of_WINDS"},"data":[0,0,0,0,0,0,0,0,0,0,0,0,0,0,0,0,0,0,0,0,0,0,0,0,0,0,0,0,0,0,0,0,0,0,0,0,0,0,0,0,0,0,0,0,0,0,0,0,0,0,0,0,0,0,0,0,0,0,5.6389,5.6388,0,5.6384,5.6384,5.6384,5.6297,5.6294,5.6292,5.629,5.6286,5.6288,5.629,0,0,0,0,0,0,0,0,0,0,0,0,0,5.632,5.6322,5.6389,5.6388,5.6388,5.6384,5.6384,5.6384,5.6297,5.6294,5.6292,5.6289,5.6285,5.6288,5.629,0,0,0,0,0,0,0,0,0,0,0,0,0,5.6337,5.6323,5.6389,5.6344,5.634,5.6384,5.6384,5.6384,5.6298,5.6294,5.6291,5.6288,5.6285,5.6287,5.629,5.6376,0,0,5.6299,5.6301,0,0,0,0,0,0,0,0,5.6336,5.6339,5.6351,5.6348,5.6343,5.6338,5.6359,5.6382,5.6299,5.6314,5.629,5.6286,5.6306,5.6307,5.6313,5.6376,5.6376,5.63,5.6301,5.6303,5.6304,0,0,0,0,0,0,0,5.6335,5.6339,5.6387,5.6351,5.6347,5.6325,5.6323,5.6363,5.6329,5.6312,5.6306,5.6307,5.6303,5.6311,5.6313,5.6376,5.63,5.6302,5.6304,5.6305,5.6507,5.6511,0,0,0,0,0,0,5.634,5.6338,5.6387,5.6387,5.6331,5.6329,5.6327,5.6343,5.6328,5.6323,5.631,5.6303,5.6307,5.6309,5.6312,5.6411,5.6303,5.6306,5.6307,5.6504,5.6508,5.6512,0,0,0,0,0,0,5.6339,5.6345,5.6387,5.6361,5.6365,5.6333,5.6352,5.6345,5.6352,5.6326,5.632,5.6324,5.6305,5.6308,5.6361,5.641,5.6307,5.631,5.65,5.6505,5.651,5.661,0,0,0,0,0,0,5.6337,5.6345,5.6378,5.6362,5.6366,5.6436,5.6355,5.6347,5.6357,5.6348,5.6338,5.6333,5.6302,5.6357,5.6364,5.6412,5.6312,5.6495,5.6502,5.6508,5.6602,5.6618,5.6632,0,0,0,0,0,5.6335,5.6406,5.638,5.6386,5.6406,5.6439,5.6441,5.6405,5.6362,5.6394,5.6377,5.6333,5.6403,5.6363,5.637,5.642,5.6492,5.65,5.6508,5.6595,5.6615,5.6631,0,0,0,0,0,0,5.6428,5.6403,5.6374,5.6442,5.6443,5.6424,5.6464,5.6427,5.6441,5.6432,5.6386,5.6384,5.6444,5.6437,5.6392,5.6501,5.644,5.645,5.6504,5.6522,5.6537,5.6537,5.6314,0,0,0,0,0,5.6457,5.6486,5.6462,5.6525,5.6527,5.6496,5.6508,5.648,5.648,5.648,5.6467,5.6468,5.649,5.6506,5.6525,5.6601,5.6597,5.6638,5.6653,5.6665,5.6674,5.6713,5.6731,5.6538,5.6538,5.6538,0,0,5.6516,5.6506,5.6527,5.6543,5.6541,5.6571,5.6497,5.6532,5.6554,5.6485,5.6534,5.6525,5.6523,5.6587,5.6615,5.6583,5.6727,5.6676,5.6686,5.6688,5.6723,5.6742,5.6758,5.6544,5.6543,5.6542,0,0,5.6639,5.6635,5.6686,5.6685,5.6682,5.6661,5.6673,5.666,5.6651,5.6699,5.6647,5.6673,5.6712,5.6713,5.6719,5.6842,5.6801,5.6849,5.6926,5.6965,5.698,5.6993,5.7036,5.7052,5.6858,5.6858,5.6859,0,5.6713,5.6757,5.6717,5.6756,5.6764,5.6703,5.6754,5.6755,5.6759,5.6766,5.6731,5.6778,5.6773,5.6836,5.6866,5.6873,5.6885,5.685,5.6981,5.6994,5.7005,5.7046,5.7063,5.6864,5.6863,5.6863,5.6862,0,5.6848,5.6879,5.6921,5.6926,5.6939,5.6984,5.695,5.6968,5.6939,5.6921,5.697,5.6962,5.6977,5.699,5.6963,5.705,5.703,5.6989,5.6925,5.703,5.7068,5.7083,5.6872,5.687,5.6869,5.6867,0,0,5.703,5.7012,5.7028,5.7029,5.7021,5.7044,5.7086,5.7101,5.7117,5.7122,5.7155,5.719,5.7151,5.7157,5.7129,5.7163,5.726,5.7117,5.7116,5.7143,5.7355,5.7386,5.7405,5.7233,5.7236,5.7238,5.7355,0,5.7149,5.7219,5.7184,5.7258,5.7286,5.7228,5.7264,5.7264,5.7248,5.7269,5.7252,5.7277,5.7224,5.7228,5.7259,5.7242,5.7302,5.7233,5.7264,5.7265,5.7266,5.7424,5.7457,5.7568,5.7369,5.7372,5.7374,0,5.7297,5.7307,5.7384,5.737,5.7381,5.7414,5.7425,5.7446,5.7444,5.743,5.7437,5.74,5.744,5.7378,5.7432,5.7386,5.7396,5.739,5.7393,5.7394,5.7326,5.7429,5.7602,5.7619,5.7396,5.7394,5.7393,0,5.7421,5.7454,5.7505,5.7507,5.7493,5.7517,5.7512,5.7506,5.7518,5.7527,5.7533,5.7548,5.7556,5.7567,5.7535,5.7493,5.7594,5.7529,5.7583,5.7584,5.7607,5.7606,5.7783,5.7615,5.7614,5.7614,5.7614,0,5.7557,5.7607,5.756,5.7591,5.7645,5.7603,5.7657,5.7646,5.7641,5.7669,5.762,5.7647,5.7603,5.7626,5.7601,5.7649,5.7653,5.7643,5.7636,5.7647,5.7648,5.7653,5.7644,5.7618,5.7618,5.7617,5.7616,0,5.7705,5.7676,5.7727,5.7708,5.7705,5.7745,5.7729,5.7757,5.7738,5.7773,5.7779,5.7749,5.7773,5.7743,5.7764,5.7747,5.7813,5.7794,5.7814,5.7808,5.7864,5.7859,5.805,5.8073,5.7891,5.7892,5.7894,0,5.7794,5.783,5.7815,5.783,5.7828,5.7852,5.7863,5.7824,5.7837,5.7836,5.7864,5.7884,5.7898,5.7939,5.7919,5.7935,5.7916,5.7982,5.7918,5.7928,5.7916,5.7914,5.7918,5.7995,5.7997,5.7999,5.8,0,5.7953,5.7937,5.7954,5.7967,5.7981,5.7989,5.7993,5.8008,5.7967,5.7984,5.8008,5.8019,5.804,5.806,5.807,5.8065,5.8026,5.8021,5.8034,5.8046,5.8055,5.805,5.7849,5.8016,5.8015,5.8014,5.8013,5.8012,5.8074,5.8103,5.8097,5.8118,5.8117,5.8122,5.8147,5.813,5.8149,5.8163,5.8139,5.8168,5.8164,5.8174,5.8173,5.8196,5.8167,5.8187,5.8192,5.8197,5.8205,5.8052,5.8198,5.8197,5.8197,5.8196,5.8196,0,5.8231,5.8223,5.8243,5.825,5.8266,5.8228,5.823,5.8247,5.8273,5.8273,5.8287,5.8314,5.8333,5.8314,5.833,5.8352,5.8334,5.8357,5.8355,5.8354,5.823,5.8217,5.8371,5.8371,5.8371,5.8371,5.8371,5.8371,5.8314,5.8361,5.8344,5.839,5.8383,5.8411,5.8416,5.842,5.8419,5.8451,5.8466,5.8454,5.8446,5.8461,5.8476,5.847,5.8478,5.8507,5.8495,5.838,5.8363,5.8346,5.8334,5.851,5.851,5.8617,5.8618,5.8619]}]]